Location: Unspecified
(0.0000°N, 0.0000°E)
Time: 19:12:42
(UTC+00:00)

Envisat - Pass Details

Date: 13 March 2019
Orbit: 764 x 766 km, 98.1° (Epoch: 24 September)

Event Time Altitude Azimuth Distance (km) Brightness Sun altitude
Rises 18:58:13 0° 165° (SSE) 3,227 6.1 -12.2°
Reaches altitude 10° 19:00:32 10° 163° (SSE) 2,299 5.3 -12.7°
Maximum altitude 19:05:35 75° 78° (ENE) 790 2.9 -14.0°
Drops below altitude 10° 19:10:38 10° 353° (N) 2,290 5.5 -15.3°
Sets 19:12:55 0° 351° (N) 3,213 6.3 -15.8°
